| time (UTC) | temp F | wind direction | speed knots | gust knots | rain 1hr in | rain 24hr in | rain mn in | humidity % | barometer mb |
| 20260504204509 | 80 | 227 | 6.1 | 13.0 | 0.00 | 0.00 | 0.00 | 45 | 1010.6 |
| 20260504203018 | 80 | 221 | 7.0 | 11.3 | 0.00 | 0.00 | 0.00 | 44 | 1011.0 |
| 20260504201506 | 80 | 212 | 1.7 | 10.4 | 0.00 | 0.00 | 0.00 | 47 | 1011.0 |
| 20260504200005 | 80 | 174 | 2.6 | 11.3 | 0.00 | 0.00 | 0.00 | 48 | 1011.3 |
| 20260504194503 | 80 | 228 | 7.0 | 16.5 | 0.00 | 0.00 | 0.00 | 46 | 1011.9 |
| 20260504193000 | 80 | 193 | 2.6 | 7.8 | 0.00 | 0.00 | 0.00 | 48 | 1012.0 |
| 20260504191559 | 80 | 212 | 4.3 | 12.2 | 0.00 | 0.00 | 0.00 | 47 | 1012.3 |
| 20260504190125 | 80 | 223 | 4.3 | 9.6 | 0.00 | 0.00 | 0.00 | 46 | 1012.4 |
| 20260504184558 | 79 | 176 | 4.3 | 7.0 | 0.00 | 0.00 | 0.00 | 48 | 1012.4 |
| 20260504183051 | 78 | 212 | 4.3 | 12.2 | 0.00 | 0.00 | 0.00 | 50 | 1012.4 |
| 20260504181556 | 78 | 203 | 6.1 | 13.9 | 0.00 | 0.00 | 0.00 | 48 | 1012.5 |
| 20260504180128 | 78 | 181 | 3.5 | 11.3 | 0.00 | 0.00 | 0.00 | 50 | 1012.6 |
| 20260504174549 | 78 | 173 | 3.5 | 10.4 | 0.00 | 0.00 | 0.00 | 49 | 1012.9 |
| 20260504173056 | 78 | 225 | 3.5 | 8.7 | 0.00 | 0.00 | 0.00 | 50 | 1013.2 |
| 20260504171540 | 78 | 176 | 3.5 | 8.7 | 0.00 | 0.00 | 0.00 | 51 | 1013.3 |
| 20260504081515 | 56 | 229 | 0.0 | 2.6 | 0.00 | 0.00 | 0.00 | 75 | 1014.5 |
| 20260504050117 | 55 | 223 | 0.0 | 0.9 | 0.00 | 0.00 | 0.00 | 73 | 1015.9 |
| 20260504044548 | 55 | 223 | 0.0 | 1.7 | 0.00 | 0.00 | 0.00 | 74 | 1015.9 |
| 20260504043047 | 55 | 216 | 0.0 | 0.9 | 0.00 | 0.00 | 0.00 | 74 | 1016.0 |
| 20260504041547 | 55 | 216 | 0.0 | 0.0 | 0.00 | 0.00 | 0.00 | 75 | 1016.2 |
| 20260504040046 | 55 | 216 | 0.0 | 0.0 | 0.00 | 0.00 | 0.00 | 75 | 1016.4 |
| 20260504034551 | 54 | 216 | 0.0 | 0.9 | 0.00 | 0.00 | 0.00 | 75 | 1016.5 |
| 20260504033046 | 54 | 216 | 0.0 | 0.9 | 0.00 | 0.00 | 0.00 | 77 | 1016.4 |
| 20260504031603 | 53 | 216 | 0.0 | 0.9 | 0.00 | 0.00 | 0.00 | 79 | 1016.6 |
| 20260504030044 | 53 | 216 | 0.0 | 0.9 | 0.00 | 0.00 | 0.00 | 80 | 1016.8 |
| 20260504024545 | 53 | 216 | 0.0 | 0.9 | 0.00 | 0.00 | 0.00 | 79 | 1016.7 |
| 20260504023043 | 54 | 216 | 0.0 | 0.0 | 0.00 | 0.00 | 0.00 | 77 | 1016.7 |
| 20260504021542 | 55 | 216 | 0.0 | 0.0 | 0.00 | 0.00 | 0.00 | 75 | 1016.6 |
| 20260504020043 | 55 | 216 | 0.0 | 0.0 | 0.00 | 0.00 | 0.00 | 73 | 1016.5 |
| 20260504014544 | 56 | 216 | 0.0 | 0.0 | 0.00 | 0.00 | 0.00 | 71 | 1016.3 |
| 20260504013041 | 58 | 216 | 0.0 | 0.0 | 0.00 | 0.00 | 0.00 | 68 | 1016.1 |
| 20260504011546 | 59 | 216 | 0.0 | 0.0 | 0.00 | 0.00 | 0.00 | 64 | 1016.1 |
| 20260504010045 | 61 | 216 | 0.0 | 0.0 | 0.00 | 0.00 | 0.00 | 61 | 1016.3 |
| 20260504004540 | 63 | 216 | 0.0 | 0.0 | 0.00 | 0.00 | 0.00 | 55 | 1016.1 |
| 20260504003045 | 65 | 216 | 0.0 | 0.0 | 0.00 | 0.00 | 0.00 | 52 | 1016.2 |
| 20260504001552 | 67 | 216 | 0.0 | 0.9 | 0.00 | 0.00 | 0.00 | 48 | 1016.2 |
| 20260504000037 | 68 | 216 | 0.0 | 3.5 | 0.00 | 0.00 | 0.00 | 46 | 1016.1 |
| 20260503234536 | 69 | 222 | 0.0 | 3.5 | 0.00 | 0.00 | 0.00 | 45 | 1016.3 |
| 20260503233035 | 70 | 224 | 0.0 | 4.3 | 0.00 | 0.00 | 0.00 | 44 | 1016.6 |
| 20260503231545 | 70 | 173 | 2.6 | 9.6 | 0.00 | 0.00 | 0.00 | 42 | 1016.4 |
| 20260503230033 | 72 | 215 | 0.0 | 7.0 | 0.00 | 0.00 | 0.00 | 40 | 1016.4 |
| 20260503224531 | 73 | 249 | 1.7 | 7.0 | 0.00 | 0.00 | 0.00 | 40 | 1016.9 |
| 20260503223029 | 73 | 194 | 1.7 | 8.7 | 0.00 | 0.00 | 0.00 | 39 | 1016.9 |
| 20260503221527 | 73 | 165 | 3.5 | 9.6 | 0.00 | 0.00 | 0.00 | 40 | 1017.1 |
| 20260503220034 | 73 | 209 | 0.9 | 7.0 | 0.00 | 0.00 | 0.00 | 40 | 1017.1 |
| 20260503214522 | 73 | 188 | 2.6 | 7.0 | 0.00 | 0.00 | 0.00 | 40 | 1017.4 |
| 20260503213022 | 74 | 205 | 0.9 | 5.2 | 0.00 | 0.00 | 0.00 | 38 | 1017.8 |
| 20260503211522 | 73 | 205 | 0.9 | 8.7 | 0.00 | 0.00 | 0.00 | 42 | 1018.1 |
| 20260503210017 | 72 | 239 | 0.9 | 4.3 | 0.00 | 0.00 | 0.00 | 39 | 1018.3 |